Погода Черновцы

Поиск расширенной информации на нашем сайте:

Полезная информация:

Новости сайта



02.01.2020
Опубликован Долгосрочный прогноз погоды по городам России и ближнего зарубежья на январь 2020 года.
Карты: Прогноз на январь и февраль 2020 года, Сравнение прогнозируемой аномалии приземной температуры воздуха на январь 2020 года по разным моделям.




Погода Черновцы - сегодня

Время (UTC), дата Ветер
(°,м/с) 
Видим.   Явления Облачность Т
(°С)
Тd
(°С)
f(%) Тe
(°С)
Pmin
(гПа)
dP
(гПа)
Po
(мм)
O2
(г/м3)
Тmin Tmax R s Состояние
почвы
15 09.08.20 290 (З) 50000 м    8/5 1500 м средняя 
[Cu hum|Ac trans]
+28.3 +13.9 41 +35  1015.1  -1.1  741  268           
18 09.08.20 320 (СЗ) 50000 м    6/0 средняя, верхняя 
[Ac trans|Ci fib]
+24.6 +15.2 56 +34  1015.5  0.1  741  271    +29.3       
21 09.08.20 340 (С) 40000 м    3/0 средняя 
[Ac trans]
+21.8 +16 70 +33  1016.1  0.3  741  273           
00 10.08.20 310 (СЗ) 25000 м    4/0 верхняя 
[Ci fib]
+19.6 +17 85 +34  1016.1  -0.2  741  275           
03 10.08.20 310 (СЗ) 50000 м    8/0 средняя 
[Ac trans]
+19.4 +17.5 89 +34  1016.3  0.2  741  275           
06 10.08.20 340 (С) 27000 м  в посл. час ливневой дождь  9/3 1000 м кучево-дожд., средняя 
[Cb calv|Ac trans]
+19.4 +18.3 93 +35  1017.5  1.2  742  275  +18.4    0.0     
09 10.08.20 200 (Ю) 50000 м  {ливн. осадки}  8/3 1000 м кучево-дожд., средняя 
[Cb calv|Ac trans]
+24.2 +18.6 71 +40  1016.5  -0.5  741  270           
12 10.08.20 310 (СЗ) 50000 м  {ливн. осадки}  8/8 1500 м кучево-дожд. 
[Cb calv]
+26.1 +16.6 56 +38  1015  -1.3  740  269           
15 10.08.20 тихо ()   50000 м  гроза без осадков  8/4 1000 м кучево-дожд., средняя 
[Cb calv|Ac trans]
+21.6 +14.9 66 +30  1015.9  0.4  741  273           
18 10.08.20 270 (З) 30000 м  {гроза, ливн. осадки}  6/0 средняя 
[Ac trans]
+21.3 +16 72 +32  1016  0.1  741  273    +27.8  0.3     
21 10.08.20 310 (СЗ) 24000 м    3/0 средняя 
[Ac trans]
+18.9 +17.3 90 +33  1016.8  0.5  741  275           
00 11.08.20 тихо ()   20000 м    3/0 средняя 
[Ac trans]
+17.1 +16.6 97 +29  1017  0.1  741  277           
03 11.08.20 310 (СЗ) 12000 м    ясно 
+15.7 +15.4 98 +26  1017.4  0.2  741  279           
06 11.08.20 320 (СЗ) 40000 м    ясно 
+19.2 +17.2 88 +33  1017.9  0.8  742  275  +15.7  +2.4       
09 11.08.20 330 (СЗ) 50000 м    ясно 
+24.4 +15.9 59 +35  1017.3  -0.1  742  271           
12 11.08.20 330 (СЗ) 50000 м    8/4 1500 м верхняя 
[Cu hum|Ci fib]
+26.8 +11.3 38 +30  1016.5  -0.6  741  270           
15 11.08.20 310 (СЗ) 50000 м    8/3 1500 м верхняя 
[Cu hum|Ci fib]
+27.8 +13.4 41 +34  1014.8  -1.5  740  268           
18 11.08.20 330 (СЗ) 35000 м  в посл. час гроза{ливн. осадки}  9/5 1000 м кучево-дожд., средняя 
[Cb calv|Ac trans]
+20.5 +18.6 89 +36  1016.7  1.2  741  273    +28.6     
21 11.08.20 310 (СЗ) 30000 м    4/0 средняя 
[Ac trans]
+18.4 +17.1 92 +32  1017.4  0.5  742  276           
00 12.08.20 300 (СЗ) 25000 м    ясно 
+17.2 +15.5 90 +28  1017.5  -0.1  742  278           
03 12.08.20 310 (СЗ) 10 км    ясно 
+15.6 +15.1 97 +25  1017.5  -0.1  741  279           
06 12.08.20 300 (СЗ) 40000 м  {туман}  ясно 
+19.1 +16.5 85 +31  1017.6  0.4  742  276  +14.9  -2.2       
09 12.08.20 300 (СЗ) 50000 м    5/4 1500 м верхняя 
[Cu hum|Ci fib]
+22.5 +16.8 70 +35  1017.6  0.4  742  273           
12 12.08.20 310 (СЗ) 50000 м    5/5 1500 м 
[Cu hum]
+26.1 +13.4 45 +32  1016.6  -0.7  742  270           
15 12.08.20 350 (С) 50000 м    4/4 1500 м 
[Cu hum]
+25.5 +12.9 46 +31  1016.5  -0.2  741  271           
Время (UTC), дата Ветер
(°,м/с) 
Видим.   Явления Облачность Т
(°С)
Тd
(°С)
f(%) Тe
(°С)
Pmin
(гПа)
dP
(гПа)
Po
(мм)
O2
(г/м3)
Тmin Tmax R s Состояние
почвы

Для получения пояснительной информации подведите курсор к названию столбца.

ПОГОДА Черновцы - архив

Всё, что Вы хотите узнать о погоде Черновцы - удобно и подробно!

Выберите нужную дату (начиная с 1 января 2019* года) и нажмите кнопку "Найти".
Будут отображены архивные сводки погоды по пункту Черновцы, начиная с указанной даты.


Отображать данные в формате CSV (для использования в таблицах Excel)


Внимание! Наш архив погоды предназначен исключительно для личного некоммерческого использования в познавательных целях. Если Вам необходимы официальные справки о состоянии погоды (для производственных, юридических, коммерческих и т.п. целей), обращайтесь в органы Росгидромета.

*Примечание: данная дата относится к архиву по метеостанциям СССР (Россия, СНГ, Балтия).
Архив по метеостанциям Зарубежной Европы и Азии (кроме Китая) хранится 10 дней, по другим регионам земного шара (Китай, Африка, Америка, Австралия, Океания) - 1 день.

Черновцы - район местоположения метеостанции


Название, широта, долгота, высота метеостанции:
Черновцы 48.4°ш. 25.9°д. 246 м над ур. моря [Украина]

Дополнительная информация

В oтличие oт бoльшинства пoгoдных сайтoв мы публикуем пoдрoбную метеoинфoрмацию в детальнoм прoфессиoнальнoм фoрмате.

Характеристики температуры и влажнoсти вoздуха измеряются на высoте 2 м в тени вдали oт зданий и деревьев.
Скoрoсть ветра измеряется на высoте 10 м (на урoвне рoста челoвека скoрoсть ветра ниже в 1.5-2 раза). Если метеoстанция нахoдится в гoрoде или в лесу, тo скoрoсть ветра занижена на 2-4 м/с пo сравнению с oткрытым местoм. Скoрoсть ветра над акватoриями крупных рек и oзёр, а также на вершинах хoлмoв на 2-5 м/с выше, чем в oбычных услoвиях.
Атмoсфернoе давление в разных тoчках местнoсти мoжет значительнo oтличаться oт давления на метеoстанции, в зависимoсти oт услoвий рельефа (при пoдъёме на 10 м давление пoнижается примернo на 1 мм рт.ст.).